This demonstration page uses our WeatherBlox Daily Observations layout. Learn more.

38.89511, -77.03637

Hourly Observations for March 20, 2015

Temp ( °F °C ) Dew Point ( °F °C ) Humidity (%) Winds ( mph kmh ) Pressure ( in mb ) Visibility ( mi km ) Precip ( " mm )
12:52 am 00:52 Cloudy 46 8 25 -4 43 43 SE 6 9 30.27 1025 10 16.09344 0 0
1:23 am 01:23 Cloudy 46 8 25 -4 43 43 ESE 3 6 30.27 1025 10 16.09344 0 0
1:52 am 01:52 Cloudy 45 7 25 -4 46 46 SSE 3 6 30.27 1025 10 16.09344 0 0
2:52 am 02:52 Cloudy with Light Rain 45 7 27 -3 49 49 SSE 6 9 30.27 1025 9 14.484096 0.001 0.001
3:21 am 03:21 Cloudy with Light Rain 43 6 30 -1 61 61 SE 3 6 30.27 1025 5 8.04672 0.02 0.508
3:30 am 03:30 Cloudy with Light Rain 43 6 30 -1 61 61 Calm 30.27 1025 5 8.04672 0 0
3:52 am 03:52 Cloudy with Light Rain 41 5 30 -1 66 66 ENE 3 6 30.24 1024 7 11.265408 0.04 1.016
4:52 am 04:52 Cloudy with Light Rain 41 5 36 2 81 81 E 8 13 30.24 1024 5 8.04672 0.03 0.762
5:52 am 05:52 Cloudy with Light Rain 41 5 36 2 81 81 SE 8 13 30.24 1024 5 8.04672 0.06 1.524
6:36 am 06:36 Cloudy with Light Rain 37 3 34 1 87 87 SE 7 11 30.27 1025 5 8.04672 0 0
6:52 am 06:52 Cloudy with Light Rain 37 3 34 1 87 87 SE 7 11 30.27 1025 5 8.04672 0.08 2.032
6:58 am 06:58 Cloudy with Light Rain/Snow 37 3 34 1 87 87 SE 6 9 30.27 1025 6 9.656064 0 0
7:31 am 07:31 Cloudy with Light Wintry Mix 36 2 32 0 87 87 Calm 30.27 1025 4 6.437376 0.04 1.016
7:39 am 07:39 Cloudy with Light Wintry Mix 36 2 32 0 87 87 Calm 30.27 1025 2 3.218688 0.04 1.016
7:52 am 07:52 Cloudy with Light Wintry Mix 36 2 32 0 87 87 Calm 30.27 1025 3 4.828032 0.05 1.27
8:04 am 08:04 Cloudy with Light Wintry Mix 36 2 32 0 87 87 ESE 3 6 30.27 1025 2.5 4.02336 0 0
8:20 am 08:20 Cloudy with Light Wintry Mix 36 2 34 1 93 93 E 5 7 30.24 1024 3 4.828032 0 0
8:45 am 08:45 Cloudy with Light Snow 36 2 32 0 87 87 E 3 6 30.24 1024 2.5 4.02336 0.04 1.016
8:52 am 08:52 Cloudy with Light Snow 36 2 32 0 87 87 ESE 3 6 30.24 1024 2.5 4.02336 0.04 1.016
9:00 am 09:00 Cloudy with Light Wintry Mix 36 2 32 0 87 87 ESE 5 7 30.24 1024 2.5 4.02336 0 0
9:09 am 09:09 Cloudy with Light Wintry Mix 37 3 34 1 87 87 Calm 30.24 1024 4 6.437376 0.01 0.254
9:21 am 09:21 Cloudy with Light Wintry Mix 37 3 32 0 81 81 ESE 6 9 30.24 1024 2.5 4.02336 0.02 0.508
9:52 am 09:52 Cloudy with Light Wintry Mix 37 3 34 1 87 87 E 5 7 30.24 1024 2.5 4.02336 0.05 1.27
10:16 am 10:16 Cloudy with Light Rain 37 3 34 1 87 87 E 5 7 30.21 1023 3 4.828032 0.02 0.508
10:40 am 10:40 Cloudy with Light Rain 37 3 34 1 87 87 E 6 9 30.21 1023 2.5 4.02336 0 0
10:52 am 10:52 Cloudy with Light Rain 37 3 34 1 87 87 ENE 8 13 30.21 1023 2.5 4.02336 0.04 1.016
11:45 am 11:45 Cloudy with Light Rain 37 3 34 1 87 87 NE 6 9 30.21 1023 1.75 2.816352 0.01 0.254
11:52 am 11:52 Cloudy with Light Rain 37 3 34 1 87 87 ENE 7 11 30.21 1023 1.75 2.816352 0.01 0.254
12:06 pm 12:06 Cloudy with Light Rain 37 3 34 1 87 87 ENE 7 11 30.21 1023 1.75 2.816352 0 0
12:19 pm 12:19 Cloudy with Light Rain 37 3 34 1 87 87 NE 8 13 30.18 1022 2 3.218688 0.02 0.508
12:44 pm 12:44 Cloudy with Light Rain 37 3 34 1 87 87 NE 9 15 30.18 1022 2.5 4.02336 0 0
12:52 pm 12:52 Cloudy with Light Rain 37 3 34 1 87 87 NE 10 17 30.18 1022 2.5 4.02336 0.03 0.762
1:17 pm 13:17 Cloudy with Light Rain 37 3 34 1 87 87 NNE 10 17 30.18 1022 4 6.437376 0.03 0.762
1:52 pm 13:52 Cloudy with Light Rain 37 3 34 1 87 87 NE 8 13 30.15 1021 2.5 4.02336 0.03 0.762
2:23 pm 14:23 Cloudy with Light Rain 37 3 34 1 87 87 NE 10 17 30.12 1020 3 4.828032 0.01 0.254
2:52 pm 14:52 Cloudy with Light Rain 37 3 34 1 87 87 NNE 12 19 30.12 1020 5 8.04672 0.03 0.762
3:11 pm 15:11 Cloudy with Light Rain 37 3 34 1 87 87 NE 12 19 30.12 1020 5 8.04672 0.001 0.001
3:18 pm 15:18 Cloudy with Light Rain 37 3 34 1 87 87 NNE 13 20 30.12 1020 5 8.04672 0 0
3:52 pm 15:52 Cloudy with Light Rain 37 3 34 1 87 87 NNE 13 20 30.12 1020 2.5 4.02336 0.001 0.001
4:09 pm 16:09 Cloudy with Light Drizzle 37 3 34 1 87 87 NNE 12 19 30.12 1020 3 4.828032 0.001 0.001
4:52 pm 16:52 Cloudy 37 3 34 1 87 87 NNE 15 24 30.09 1019 10 16.09344 0.001 0.001
5:25 pm 17:25 Cloudy 37 3 34 1 87 87 NE 13 20 30.09 1019 10 16.09344 0 0
5:52 pm 17:52 Cloudy 37 3 34 1 87 87 NNE 13 20 30.09 1019 10 16.09344 0 0
6:10 pm 18:10 Cloudy 37 3 34 1 87 87 NNE 13 20 30.09 1019 10 16.09344 0 0
6:52 pm 18:52 Cloudy 37 3 34 1 87 87 NE 14 22 30.09 1019 10 16.09344 0 0
7:52 pm 19:52 Cloudy 39 4 34 1 81 81 N 12 19 30.12 1020 10 16.09344 0 0
8:52 pm 20:52 Cloudy 39 4 34 1 81 81 N 8 13 30.15 1021 10 16.09344 0 0
9:52 pm 21:52 Cloudy 39 4 34 1 81 81 N 10 17 30.15 1021 10 16.09344 0 0
10:52 pm 22:52 Cloudy 39 4 34 1 81 81 NNW 12 19 30.15 1021 10 16.09344 0 0
11:52 pm 23:52 Cloudy 39 4 34 1 81 81 N 10 17 30.15 1021 10 16.09344 0 0

Powered by AerisWeather